Estación Meteorológica Peña el Pijo (Robertgarden) [ 07/11/20 02:59:07 CEST ]

Fecha Hora Presion(HPa) Temp (°C) Humedad % Rocio (°C) Viento ( m/s) Direccion Lluvia 1Hora(mm) Lluvia 24H(mm) LLuvia Total(mm)
2019-Dec-28 01:09:02 1017.500 - - - - WNW     39.88
2019-Dec-28 02:10:31 1017.200 - - - - WNW     39.88
2019-Dec-28 03:09:31 1016.800 - - - - WNW     39.88
2019-Dec-28 04:09:38 1016.700 - - - - WNW     39.88
2019-Dec-28 05:09:55 1017.000 - - - - WNW     39.88
2019-Dec-28 06:09:40 1017.000 - - - - WNW     39.88
2019-Dec-28 07:09:12 1017.000 - - - - WNW     39.88
2019-Dec-28 08:09:14 1017.500 - - - - WNW     39.88
2019-Dec-28 09:08:58 1017.900 - - - - WNW     39.88
2019-Dec-28 10:08:55 1018.300 - - - - WNW     39.88
2019-Dec-28 11:09:17 1018.800 - - - - WNW     39.88
2019-Dec-28 12:09:11 1017.800 - - - - WNW     39.88
2019-Dec-28 13:09:04 1016.700 - - - - WNW     39.88
2019-Dec-28 14:09:10 1015.900 - - - - WNW     39.88
2019-Dec-28 15:09:07 1015.300 - - - - WNW     39.88
2019-Dec-28 16:09:05 1015.700 - - - - WNW     39.88
2019-Dec-28 17:09:08 1016.300 - - - - WNW     39.88
2019-Dec-28 18:09:15 1017.200 - - - - WNW     39.88
2019-Dec-28 19:09:22 1017.700 - - - - WNW     39.88
2019-Dec-28 20:09:09 1018.000 - - - - WNW     39.88
2019-Dec-28 21:09:53 1018.300 - - - - WNW     39.88
2019-Dec-28 22:09:10 1018.600 - - - - WNW     39.88
2019-Dec-28 23:01:36 1018.800 0.8 72 -3.7         39.88

Temperatura Máxima:    Temperatura Mínima:
Presión Máxima:1018.800 Hpa    Presión Mínima:1015.300 Hpa


Volver